Fremont, MI

4:40 AM EDT on August 21, 2019 (GMT -0400)
Fremont

Weather History for KFFX - May, 2019

Change the Weather History Date:

Sunday, May 12, 2019

  Actual Average (KMKG) Record (KMKG)
Temperature  
Mean Temperature 50 °F -  
Max Temperature 55 °F 64 °F 83 °F (2011)
Min Temperature 44 °F 43 °F 32 °F (1951)
Degree Days  
Heating Degree Days 16    
Moisture  
Dew Point 36 °F    
Average Humidity 60    
Maximum Humidity 76    
Minimum Humidity 47    
Precipitation  
Precipitation 0.00 in - - ()
Sea Level Pressure  
Sea Level Pressure 29.88 in    
Wind  
Wind Speed 4 mph (NE)    
Max Wind Speed 10 mph    
Max Gust Speed 16 mph    
Visibility 10 miles    
Events      
Averages and records for this station are not official NWS values.
T = Trace of Precipitation, MM = Missing Value Source: NWS Daily Summary

Daily Weather History Graph

Daily Weather History Graph

Search for Another Location

Airport or City:

Astronomy

May. 12, 2019 Rise Set
Actual Time 6:23 AM EDT 8:58 PM EDT
Civil Twilight 5:50 AM EDT 9:30 PM EDT
Nautical Twilight 5:09 AM EDT 10:11 PM EDT
Astronomical Twilight 4:23 AM EDT 10:58 PM EDT
Moon 1:44 PM EDT (5/12) 3:18 AM EDT (5/12)
Length of Visible Light 15h 40m
Length of Day
14h 35m
First Quarter, 57% of the Moon is Illuminated
May 12
First Quarter
May 18
Full
May 26
Last Quarter
Jun 3
New
Jun 10
First Quarter

Hourly Weather History & Observations

Time (EDT) Temp. Windchill Dew Point Humidity Pressure Visibility Wind Dir Wind Speed Gust Speed Precip Events Conditions
12:15 AM 45.5 °F - 38.1 °F 75% 30.01 in 10.0 mi Calm Calm - N/A   Overcast
12:35 AM 45.5 °F - 37.8 °F 74% 30.00 in 10.0 mi Calm Calm - N/A   Overcast
12:55 AM 45.5 °F - 37.2 °F 73% 30.00 in 10.0 mi Calm Calm - N/A   Overcast
1:16 AM 45.1 °F - 36.3 °F 71% 29.99 in 10.0 mi Calm Calm - N/A   Overcast
1:35 AM 45.1 °F - 36.0 °F 70% 29.98 in 10.0 mi Calm Calm - N/A   Overcast
1:55 AM 44.6 °F 43.1 °F 36.5 °F 73% 29.97 in 10.0 mi ENE 3.5 mph - N/A   Overcast
2:16 AM 44.1 °F 42.5 °F 36.9 °F 76% 29.97 in 10.0 mi North 3.5 mph - N/A   Overcast
2:35 AM 44.1 °F 42.5 °F 37.0 °F 76% 29.96 in 10.0 mi North 3.5 mph - N/A   Overcast
2:55 AM 44.2 °F 42.7 °F 36.5 °F 74% 29.95 in 10.0 mi North 3.5 mph - N/A   Overcast
3:16 AM 44.4 °F 42.9 °F 36.3 °F 73% 29.94 in 10.0 mi NNE 3.5 mph - N/A   Overcast
3:36 AM 44.6 °F 42.2 °F 35.8 °F 71% 29.94 in 10.0 mi NNE 4.6 mph - N/A   Overcast
3:55 AM 44.8 °F 42.4 °F 34.9 °F 68% 29.93 in 10.0 mi NE 4.6 mph - N/A   Overcast
4:15 AM 44.8 °F - 35.2 °F 69% 29.93 in 10.0 mi Calm Calm - N/A   Overcast
4:36 AM 44.6 °F 42.2 °F 34.5 °F 68% 29.93 in 10.0 mi NNE 4.6 mph - N/A   Overcast
4:55 AM 44.8 °F 42.4 °F 32.9 °F 63% 29.92 in 10.0 mi NNE 4.6 mph - N/A   Overcast
5:15 AM 45.1 °F 42.8 °F 32.2 °F 60% 29.92 in 10.0 mi ENE 4.6 mph - N/A   Overcast
5:36 AM 45.1 °F 41.4 °F 32.0 °F 60% 29.92 in 10.0 mi ENE 6.9 mph - N/A   Overcast
5:55 AM 45.0 °F 40.6 °F 32.0 °F 60% 29.92 in 10.0 mi ENE 8.1 mph - N/A   Overcast
6:15 AM 45.0 °F 40.6 °F 31.8 °F 60% 29.92 in 10.0 mi East 8.1 mph - N/A   Overcast
6:35 AM 45.0 °F 41.2 °F 30.9 °F 58% 29.91 in 10.0 mi East 6.9 mph - N/A   Overcast
6:56 AM 44.6 °F 40.7 °F 31.6 °F 60% 29.91 in 10.0 mi East 6.9 mph - N/A   Overcast
7:16 AM 45.0 °F 41.2 °F 30.9 °F 58% 29.92 in 10.0 mi East 6.9 mph - N/A   Overcast
7:35 AM 45.0 °F 41.8 °F 29.8 °F 55% 29.92 in 10.0 mi ENE 5.8 mph - N/A   Overcast
7:56 AM 45.7 °F 42.7 °F 29.8 °F 54% 29.92 in 10.0 mi NE 5.8 mph - N/A   Overcast
8:15 AM 45.5 °F 42.5 °F 29.3 °F 53% 29.92 in 10.0 mi NE 5.8 mph - N/A   Overcast
8:35 AM 45.5 °F 43.2 °F 29.8 °F 54% 29.92 in 10.0 mi NE 4.6 mph - N/A   Overcast
8:56 AM 45.7 °F 43.4 °F 30.6 °F 56% 29.92 in 10.0 mi NE 4.6 mph - N/A   Overcast
9:15 AM 46.2 °F 43.3 °F 30.7 °F 55% 29.92 in 10.0 mi NE 5.8 mph - N/A   Overcast
9:35 AM 46.8 °F - 30.6 °F 53% 29.92 in 10.0 mi NE 5.8 mph - N/A   Overcast
9:56 AM 47.5 °F - 31.5 °F 54% 29.92 in 10.0 mi NE 6.9 mph - N/A   Overcast
10:15 AM 48.4 °F - 31.8 °F 53% 29.91 in 10.0 mi NNE 6.9 mph - N/A   Overcast
10:36 AM 48.7 °F - 32.2 °F 53% 29.90 in 10.0 mi ENE 5.8 mph - N/A   Overcast
10:55 AM 49.6 °F - 33.3 °F 53% 29.90 in 10.0 mi NE 9.2 mph - N/A   Overcast
11:16 AM 51.4 °F - 34.3 °F 52% 29.90 in 10.0 mi NE 8.1 mph - N/A   Overcast
11:36 AM 53.4 °F - 34.3 °F 48% 29.89 in 10.0 mi NE 6.9 mph - N/A   Overcast
11:55 AM 53.8 °F - 34.9 °F 49% 29.88 in 10.0 mi NE 9.2 mph - N/A   Overcast
12:15 PM 53.6 °F - 34.9 °F 49% 29.88 in 10.0 mi East 3.5 mph - N/A   Overcast
12:36 PM 54.3 °F - 35.2 °F 49% 29.87 in 10.0 mi NE 6.9 mph - N/A   Overcast
12:55 PM 54.1 °F - 34.9 °F 48% 29.87 in 10.0 mi Calm Calm - N/A   Overcast
1:15 PM 55.0 °F - 35.8 °F 48% 29.86 in 10.0 mi ENE 6.9 mph - N/A   Overcast
1:35 PM 55.0 °F - 35.4 °F 48% 29.85 in 10.0 mi East 5.8 mph - N/A   Overcast
1:56 PM 54.9 °F - 35.6 °F 48% 29.85 in 10.0 mi NNE 8.1 mph - N/A   Overcast
2:15 PM 55.6 °F - 35.8 °F 47% 29.84 in 10.0 mi NE 6.9 mph - N/A   Overcast
2:35 PM 55.8 °F - 35.8 °F 47% 29.84 in 10.0 mi NE 8.1 mph - N/A   Overcast
2:56 PM 55.4 °F - 36.3 °F 49% 29.84 in 10.0 mi ENE 9.2 mph - N/A   Overcast
3:16 PM 55.4 °F - 36.7 °F 49% 29.83 in 10.0 mi ENE 4.6 mph - N/A   Overcast
3:35 PM 55.4 °F - 36.9 °F 50% 29.83 in 10.0 mi ENE 6.9 mph - N/A   Overcast
3:56 PM 55.0 °F - 37.0 °F 51% 29.83 in 10.0 mi ENE 6.9 mph 16.1 mph N/A   Overcast
4:15 PM 55.2 °F - 36.9 °F 50% 29.82 in 10.0 mi ENE 6.9 mph - N/A   Overcast
4:35 PM 55.0 °F - 37.8 °F 52% 29.82 in 10.0 mi ENE 6.9 mph - N/A   Overcast
4:56 PM 55.0 °F - 37.9 °F 53% 29.82 in 10.0 mi ENE 8.1 mph - N/A   Overcast
5:16 PM 54.5 °F - 38.5 °F 55% 29.81 in 10.0 mi NE 9.2 mph - N/A   Light Drizzle
5:35 PM 53.6 °F - 38.7 °F 57% 29.81 in 10.0 mi NE 8.1 mph - N/A   Light Drizzle
5:55 PM 53.8 °F - 38.1 °F 55% 29.82 in 10.0 mi NE 9.2 mph - N/A   Overcast
6:16 PM 53.8 °F - 38.1 °F 55% 29.81 in 10.0 mi NNE 8.1 mph - N/A   Overcast
6:35 PM 54.0 °F - 37.6 °F 54% 29.82 in 10.0 mi ENE 8.1 mph - N/A   Overcast
6:55 PM 53.8 °F - 38.1 °F 55% 29.82 in 10.0 mi ENE 8.1 mph - N/A   Overcast
7:16 PM 53.6 °F - 38.7 °F 57% 29.82 in 10.0 mi ENE 9.2 mph - N/A   Overcast
7:36 PM 53.1 °F - 38.3 °F 57% 29.82 in 10.0 mi ENE 6.9 mph - N/A   Overcast
7:55 PM 52.7 °F - 38.1 °F 58% 29.83 in 10.0 mi East 8.1 mph - N/A   Overcast
8:36 PM 51.4 °F - 38.5 °F 61% 29.83 in 10.0 mi East 6.9 mph - N/A   Overcast
8:55 PM 50.5 °F - 39.2 °F 65% 29.83 in 10.0 mi East 9.2 mph - N/A   Overcast
9:15 PM 50.0 °F - 39.2 °F 66% 29.83 in 10.0 mi East 10.4 mph - N/A   Overcast
9:36 PM 49.3 °F - 39.2 °F 68% 29.83 in 10.0 mi East 9.2 mph - N/A   Overcast
9:55 PM 48.7 °F - 39.2 °F 70% 29.83 in 10.0 mi East 8.1 mph - N/A   Overcast
10:15 PM 48.6 °F - 39.4 °F 71% 29.83 in 10.0 mi East 5.8 mph - N/A   Overcast
10:36 PM 48.4 °F - 39.7 °F 72% 29.83 in 10.0 mi East 5.8 mph - N/A   Overcast
10:56 PM 48.6 °F - 39.6 °F 71% 29.83 in 10.0 mi ENE 3.5 mph - N/A   Overcast
11:16 PM 48.6 °F - 39.0 °F 70% 29.83 in 10.0 mi NNE 3.5 mph - N/A   Overcast
11:35 PM 48.6 °F - 38.8 °F 69% 29.83 in 10.0 mi NNE 4.6 mph - N/A   Overcast
11:56 PM 48.7 °F - 38.8 °F 69% 29.83 in 10.0 mi NE 4.6 mph - N/A   Overcast